Tracking 30696 objects as of 16-Jun-2025
HD Live streaming from Space Station
objects crossing your sky now

IRIDIUM 33 DEB

Track IRIDIUM 33 DEB now!
10-day predictions


NORAD ID: 34690
Int'l Code: 1997-051KM
Perigee: 714.6 km
Apogee: 724.2 km
Inclination: 86.4 °
Period: 99.0 minutes
Semi major axis: 7090 km
RCS: 0.0122 m2 (small)
Launch date: September 14, 1997
Source: United States (US)
Launch site: TYURATAM MISSILE AND SPACE COMPLEX (TTMTR)

Note: This is SATELLITE DEBRIS
Your satellite tracking list
Your tracking list is empty




NASA's NSSDC Master Catalog

Two Line Element Set (TLE):
1 34690U 97051KM  25166.62567273  .00002263  00000-0  53098-3 0  9993
2 34690  86.3776 115.2265 0006736 253.3479 286.3810 14.54112453854766
Source of the keplerian elements: AFSPC